Regional Weather Roundup
Issued by NWS

Home | Current Version | Previous Version | Text Only | Print | Product List | Glossary On
Versions: 1 2 3 4 5 6 7 8 9 10 11 12 13 14 15 16 17 18 19 20 21 22 23 24 25 26 27 28 29 30 31 32 33 34 35 36 37 38 39 40 41 42 43 44 45 46 47 48 49 50
720
ASUS43 KMPX 212010
RWRMN
WEATHER ROUNDUP FOR MINNESOTA
NATIONAL WEATHER SERVICE TWIN CITIES/CHANHASSEN MN
300 PM CDT WED AUG 21 2019


NOTE: "FAIR" INDICATES FEW OR NO CLOUDS BELOW 12,000 FEET WITH NO
SIGNIFICANT WEATHER AND/OR OBSTRUCTIONS TO VISIBILITY. N/A MEANS
CURRENT SKY AND/OR WEATHER CONDITIONS ARE NOT AVAILABLE.

MNZ060>063-068>070-212100-
   Twin Cities Metro

CITY           SKY/WX    TMP DP  RH WIND       PRES   REMARKS
TWIN CITIES    PTSUNNY   76  52  43 NW6       30.05F
ST PAUL        FAIR      75  51  43 VRB7      30.05F
CRYSTAL        FAIR      75  52  44 NW9       30.04F
BLAINE         MOSUNNY   75  54  46 NW9       30.05F
EDEN PRAIRIE   FAIR      76  53  44 N7        30.05S
SOUTH ST PAUL  FAIR      75  48  38 NW9       30.04F
LAKE ELMO        N/A    N/A N/A N/A W7        30.06F
$$
MNZ001>005-007-008-013>017-022>024-027-028-212100-
   Northwest Minnesota

CITY           SKY/WX    TMP DP  RH WIND       PRES   REMARKS
BEMIDJI        PTSUNNY   66  45  46 NW15G23   30.07F
HALLOCK        PTSUNNY   70  45  40 NW14G20   30.09F
ROSEAU         PTSUNNY   64  52  63 NW13      30.10R
WARROAD          N/A     63  52  67 NW7       30.10R
THIEF RVR FALL PTSUNNY   68  45  43 NW14      30.10F
CROOKSTON      PTSUNNY   70  46  43 NW12G18   30.10S
FOSSTON        CLOUDY    70  45  40 NW10G17   30.10S
DETROIT LAKES  FAIR      70  46  43 NW14      30.10F
MOORHEAD       SUNNY     72  50  46 N8        30.10S
PARK RAPIDS    FAIR      70  47  43 NW12      30.08S
$$
MNZ006-009>011-018-025>026-212100-
   North Central Minnesota

CITY           SKY/WX    TMP DP  RH WIND       PRES   REMARKS
BAUDETTE       PTSUNNY   66  50  56 NW14G20   30.09R
FLAG ISLAND      N/A     63  46  55 NW15      30.06S
INTL FALLS     CLOUDY    65  48  54 NW12      30.04S
WASKISH        PTSUNNY   66  52  59 NW12      30.07F
BIG FORK       PTSUNNY   66  48  52 NW5       30.10F
LONGVILLE      PTSUNNY   68  48  49 NW7       30.07S
GRAND RAPIDS   PTSUNNY   68  48  48 NW16      30.07F
CRANE LAKE     CLOUDY    64  48  55 N7        30.06R
ORR            PTSUNNY   70  45  40 W9G17     30.02F
COOK           PTSUNNY   66  46  48 NW9       30.02F
WALKER         MOCLDY    65  49  56 N8        30.08R
$$
MNZ012-019>021-037-212100-
   Northeast Minnesota

CITY           SKY/WX    TMP DP  RH WIND       PRES   REMARKS
DULUTH         FAIR      72  46  39 NW9G22    30.03F
ELY            PTSUNNY   64  45  48 W13G18    30.02F
HIBBING        FAIR      66  45  46 NW14G23   30.03F
EVELETH        PTSUNNY   66  47  49 NW15      30.04F
DULUTH HARBOR  FAIR      70  32  24 NW15      30.01F
TWO HARBORS    FAIR      70  48  46 W8        30.00F
SILVER BAY     PTSUNNY   70  45  40 NW6       30.00F
GRAND MARAIS     N/A     69  49  48 VRB3      29.97S
G MARAIS ARPRT PTSUNNY   63  45  51 NW6G16    30.01R
$$
MNZ029>031-032-039>041-046>048-054>057-064-212100-
   West Central Minnesota

CITY           SKY/WX    TMP DP  RH WIND       PRES   REMARKS
FERGUS FALLS   FAIR      72  52  49 NW10      30.09S
MORRIS         SUNNY     73  50  43 NW13      30.05S
ALEXANDRIA     FAIR      75  47  36 W12       30.11S
ELBOW LAKE     FAIR      70  51  51 W12       30.11S
WADENA         FAIR      68  52  56 NW7       30.08S
GLENWOOD       FAIR      72  50  46 NW13      30.10S
APPLETON       SUNNY     75  50  41 NW10      30.09F
BENSON         SUNNY     73  52  46 N15       30.10F
ORTONVILLE     SUNNY     75  54  46 NW7       30.10F
MADISON        SUNNY     75  55  50 NW8       30.10F
WILLMAR        FAIR      75  48  38 NW14      30.12S
$$
MNZ033>034-036-042>043-049>051-058-059-212100-
   Central Minnesota

CITY           SKY/WX    TMP DP  RH WIND       PRES   REMARKS
ST CLOUD       FAIR      75  50  41 N9        30.06S
SAUK CENTRE    FAIR      71  49  45 W9        30.08F
PAYNESVILLE    FAIR      74  53  47 W9        30.09S
AITKIN         FAIR      70  46  43 N10       30.04S
PINE RIVER     PTSUNNY   66  46  48 N12G17    30.10S
BRAINERD       PTSUNNY   71  49  45 N9        30.06S
STAPLES        PTSUNNY   72  46  40 N10       30.07S
LONG PRAIRIE   FAIR      72  50  46 W8        30.08S
LITTLE FALLS   FAIR      72  50  46 W7        30.07S
CAMP RIPLEY    MOCLDY    75  52  45 NW13      30.07S
LITCHFIELD     FAIR      77  54  44 NW9G17    30.08S
BUFFALO        FAIR      74  49  40 MISG      30.07F
MAPLE LAKE       N/A     75  55  48 CALM      30.07F
HUTCHINSON     SUNNY     74  57  54 NW9       30.09S
$$
MNZ037-044-045-052-053-212100-
   East Central Minnesota

CITY           SKY/WX    TMP DP  RH WIND       PRES   REMARKS
PRINCETON      FAIR      75  52  43 W8        30.06S
MORA           FAIR      70  52  52 NW5       30.07R
CAMBRIDGE      FAIR      79  55  44 W6        30.05S
RUSH CITY      PTSUNNY   72  53  51 CALM      30.05S
MOOSE LAKE     PTSUNNY   72  46  40 W5        30.02F
MCGREGOR       FAIR      70  46  43 NW6       30.05S
$$
MNZ071>073-080-081-089-090-097-098-212100-
   Southwest Minnesota

CITY           SKY/WX    TMP DP  RH WIND       PRES   REMARKS
MONTEVIDEO     SUNNY     73  46  38 N13       30.10F
GRANITE FALLS  SUNNY     76  57  50 NW9       30.11F
MARSHALL       MOSUNNY   73  57  57 W6        30.12S
REDWOOD FALLS  SUNNY     75  53  46 VRB5      30.10R
OLIVIA         SUNNY     73  54  49 NW7       30.09S
PIPESTONE      SUNNY     73  54  49 CALM      30.13F
WINDOM         SUNNY     70  52  52 NW3       30.12F
WORTHINGTON    SUNNY     70  52  52 N6        30.13F
JACKSON        PTSUNNY   68  54  60 CALM      30.13S
TRACY          SUNNY     73  55  53 N3        30.12F
$$
MNZ065>067-074>077-082>085-091>093-212100-
   South Central Minnesota

CITY           SKY/WX    TMP DP  RH WIND       PRES   REMARKS
MANKATO        FAIR      73  53  49 NW9       30.09F
NEW ULM        MOSUNNY   73  55  53 SW6       30.10R
FAIRMONT       SUNNY     69  53  56 NW5       30.11F
GLENCOE        FAIR      74  53  48 NW10      30.07F
WASECA         FAIR      72  55  56 W3        30.11R
ALBERT LEA     FAIR      70  59  68 W7        30.09F
$$
MNZ078>079-086>088-094>096-212100-
   Southeast Minnesota

CITY           SKY/WX    TMP DP  RH WIND       PRES   REMARKS
ROCHESTER      FAIR      72  54  53 NW7       30.07F
RED WING       FAIR      75  39  27 N3        30.04S
STANTON        FAIR      74  53  46 W7        30.06S
DODGE CENTER   FAIR      73  50  43 NW6       30.08S
WINONA         FAIR      73  52  46 NW9       30.03F
AUSTIN         FAIR      73  50  43 W6        30.07F
PRESTON        FAIR      70  55  59 NW8       30.07S
$$
ABBREVIATIONS USED IN REMARKS
   TC - TEMPERATURES IN CELSIUS
  WCI - WIND CHILL INDEX
   HX - HEAT INDEX
  VSB - VISIBILITY
$$




USA.gov is the U.S. government's official web portal to all federal, state and local government web resources and services.